Regional Weather Roundup
Issued by NWS

Home | Current Version | Previous Version | Text Only | Print | Product List | Glossary Off
Versions: 1 2 3 4 5 6 7 8 9 10 11 12 13 14 15 16 17 18 19 20 21 22 23 24 25 26 27 28 29 30 31 32 33 34 35 36 37 38 39 40 41 42 43 44 45 46 47 48 49 50

000
ASUS45 KCYS 240410
RWRWY

WYOMING REGIONAL WEATHER ROUNDUP
NATIONAL WEATHER SERVICE CHEYENNE WY
1000 PM MDT THU APR 23 2015

NOTE:  "FAIR" INDICATES FEW OR NO CLOUDS BELOW 12,000 FEET
WITH NO SIGNIFICANT WEATHER AND/OR OBSTRUCTIONS TO VISIBILITY.

WYZ001-240500-
YELLOWSTONE NATIONAL PARK

CITY           SKY/WX    TMP DP  RH WIND       PRES   REMARKS
LK YELLOWSTONE   N/A     28  22  78 CALM      29.84R
W YELLOWSTONE  NOT AVBL

$$
WYZ002>013-054>058-071-098>099-240500-
NORTHERN WYOMING

CITY           SKY/WX    TMP DP  RH WIND       PRES   REMARKS
JACKSON        FAIR      41  34  75 SW7       29.80R
CODY           FAIR      46  41  81 S7        29.71S
GREYBULL       FAIR      53  44  71 SE9       29.68S
WORLAND        MOCLDY    52  43  71 NE7       29.69S
SHERIDAN       CLOUDY    49  45  86 CALM      29.69F
BUFFALO        MOCLDY    48  41  76 S9        29.73S
GILLETTE       MOCLDY    45  39  79 W6        29.71R
HULETT         FAIR      50  34  53 E5        29.71F
NEWCASTLE      FAIR      55  34  44 N8        29.68F

$$
WYZ014>020-022>026-101>103-240500-
CENTRAL WYOMING

CITY           SKY/WX    TMP DP  RH WIND       PRES   REMARKS
BIG PINEY      FAIR      38  33  82 CALM      29.85R
PINEDALE       CLOUDY    37  36  93 CALM      29.85S
DUBOIS         FAIR      43  30  61 W14       29.79S
LANDER         FAIR      48  33  56 SW5       29.71R
RIVERTON       FAIR      49  37  63 SW8       29.73R
CASPER         FAIR      48  36  63 SW12      29.75R
DOUGLAS        FAIR      45  40  82 S9        29.73R

$$
WYZ021-027>030-104>119-240500-
SOUTHERN WYOMING

CITY           SKY/WX    TMP DP  RH WIND       PRES   REMARKS
EVANSTON       MOCLDY    42  33  70 E5        29.85R
KEMMERER       MOCLDY    41  34  75 CALM      29.86R
FORT BRIDGER   CLEAR     43  34  70 S3        29.88R
ROCK SPRINGS   FAIR      41  35  79 SW14      29.85F
DIXON          FAIR      35  32  88 NE3       29.88S
RAWLINS        FAIR      40  34  79 SW9       29.83S WCI  34
SARATOGA       FAIR      39  32  75 MISG      29.87R
LARAMIE        FAIR      36  32  85 S8        29.85R WCI  30
CHEYENNE       FAIR      48  33  56 W9        29.81R
TORRINGTON     FAIR      54  39  57 N10       29.71R
PINE BLUFFS    MOCLDY    52  37  58 S8        29.79R

$$


USA.gov is the U.S. government's official web portal to all federal, state and local government web resources and services.